Regional Weather Roundup
Issued by NWS

Home | Current Version | Previous Version | Graphics & Text | Print | Product List | Glossary On
Versions: 1 2 3 4 5 6 7 8 9 10 11 12 13 14 15 16 17 18 19 20 21 22 23 24 25 26 27 28 29 30 31 32 33 34 35 36 37 38 39 40 41 42 43 44 45 46 47 48 49 50
000
ASUS43 KDTX 161101
RWRMI
MICHIGAN HOURLY REGIONAL WEATHER ROUNDUP
NATIONAL WEATHER SERVICE DETROIT/PONTIAC MI
700 AM EDT WED APR 16 2014

NOTE: "FAIR" INDICATES FEW OR NO CLOUDS BELOW 12,000 FEET WITH NO
SIGNIFICANT WEATHER AND/OR OBSTRUCTION TO VISIBILITY.

MIZ047>049-052>055-059>063-066>070-074>076-081>083-161200-
SOUTHEAST LOWER MICHIGAN

CITY           SKY/WX    TMP DP  RH WIND       PRES   REMARKS
ADRIAN         PTCLDY    21  16  81 CALM      30.38R
ALMA           CLEAR     24  20  86 CALM      30.34R
ANN ARBOR      CLEAR     18  15  88 CALM      30.37R
BAD AXE        CLEAR     22  19  85 S3        30.35R
CARO           CLEAR     20  19  93 CALM      30.35R
DETROIT CITY   CLEAR     26  15  63 SW3       30.38R
DETROIT        CLEAR     23  16  74 S3        30.38R
FLINT          CLEAR     20  15  81 CALM      30.35R
GROSSE ILE     CLEAR     25  18  74 CALM      30.38R
HILLSDALE      CLEAR     22  14  70 CALM      30.33R
HOWELL         CLEAR     18  14  84 CALM      30.35R

CITY           SKY/WX    TMP DP  RH WIND       PRES   REMARKS
JACKSON        CLEAR     19  13  77 CALM      30.35R
LAMBERTVILLE   CLEAR     23  18  80 CALM      30.39R
LANSING        CLEAR     21  15  78 CALM      30.35R
LAPEER         FAIR      19  17  93 CALM      30.35R
MASON          CLEAR     21  17  83 S5        30.35R WCI  15
MONROE         CLEAR     21  19  93 CALM      30.37R
MT. CLEMENS    CLEAR     20  15  81 SW3       30.36R
PONTIAC        CLEAR     20  14  77 CALM      30.34R
PORT HOPE        N/A     26  19  74 SW3       30.33R
PORT HURON     CLEAR     18  16  93 CALM      30.37R
TRI CITIES     CLEAR     25  19  78 SW3       30.35R
TROY           CLEAR     23  15  70 CALM      30.38R
SAGINAW HB     CLEAR     27  21  80 CALM      30.35R
YPSILANTI      CLEAR     23  14  68 SW5       30.38R WCI  17
$$
MIZ043>046-050>051-056>058-064>065-071>073-077>080-161200-
SOUTHWEST LOWER MICHIGAN

CITY           SKY/WX    TMP DP  RH WIND       PRES   REMARKS
BATTLE CREEK   CLEAR     24  14  65 S6        30.34R WCI  17
BENTON HARBOR  CLEAR     25  16  68 SE7       30.31R WCI  17
BIG RAPIDS     CLEAR     21  18  89 CALM      30.30R
COLDWATER      CLEAR     23  18  80 SE5       30.34R WCI  17
FREMONT        FAIR      23  18  78 SE5       30.30R WCI  17
HOLLAND        PTCLDY    26  17  68 SE9       30.32R WCI  17
GRAND RAPIDS   PTCLDY    23  16  74 S7        30.33R WCI  15
IONIA          FAIR      21  18  88 S3        30.33R
KALAMAZOO      CLEAR     25  15  66 S3        30.33R
LUDINGTON      CLEAR     24  20  83 SE5       30.31R WCI  19
MARSHALL       MOCLDY    21  15  75 S3        30.34R
MOUNT PLEASANT CLEAR     23  19  85 CALM      30.32R
MUSKEGON       PTCLDY    24  16  71 SE7       30.31R WCI  16
SOUTH HAVEN    CLEAR     25  15  65 SE5       30.31R WCI  20
$$
MIZ016>042-161200-
NORTHERN LOWER MICHIGAN

CITY           SKY/WX    TMP DP  RH WIND       PRES   REMARKS
ALPENA         CLEAR     13  12  96 CALM      30.33R
BEAVER ISLAND  CLEAR     11   9  89 SE3       30.29R
BELLAIRE       CLEAR     20  18  92 CALM      30.31R
CADILLAC       CLEAR     18  15  88 CALM      30.26R
CHARLEVOIX     CLEAR     16  14  94 SE3       30.33R
FRANKFORT      CLEAR     20  17  88 CALM      30.29R
GAYLORD        CLOUDY    17  15  92 S3        30.27R
GRAYLING       CLEAR     13  11  93 CALM      30.29R
HARBOR SPRINGS CLEAR     11   8  88 CALM      30.30R
HOUGHTON LAKE  CLEAR     15  13  91 CALM      30.29R
MANISTEE       CLEAR     25  19  80 CALM      30.30R
OSCODA         CLEAR     17  13  83 CALM      30.34R
PELLSTON       FOG        5   2  87 CALM      30.31R VSB 1/4
ROGERS CITY    CLEAR     14  13  94 SW5       30.33R WCI   7
TRAVERSE CITY  CLEAR     18  14  84 CALM      30.29R
$$
MIZ007>008-015-161200-
EASTERN UPPER MICHIGAN

CITY           SKY/WX    TMP DP  RH WIND       PRES   REMARKS
KINROSS        CLEAR     10   9  92 S3        30.29R
MACKINAC ISLAN CLEAR     16  11  80 S6        30.30R WCI   7
NEWBERRY       CLEAR      8   6  90 S6        30.27R WCI  -2
S. S. MARIE    CLEAR     10   5  80 CALM      30.29R
MUNISING         N/A     10   2  69 S7        30.26R WCI  -1
$$
MIZ004>006-011>014-085-161200-
CENTRAL UPPER MICHIGAN

CITY           SKY/WX    TMP DP  RH WIND       PRES   REMARKS
MANISTIQUE     PTCLDY     6   2  86 S5        30.28R WCI  -3
ESCANABA       CLOUDY    14  10  85 CALM      30.26R
MENOMINEE      CLEAR     18  16  93 CALM      30.24S
SAWYER-GWINN   CLEAR     -2  -6  84 CALM      30.21R
$$
MIZ001>003-009>011-084-161200-
WESTERN UPPER MICHIGAN

CITY           SKY/WX    TMP DP  RH WIND       PRES   REMARKS
IRON MOUNTAIN  PTCLDY     7   3  84 CALM      30.20R
HOUGHTON       PTCLDY    15  -1  49 CALM      30.19R
COPPER HARBOR    N/A     14   4  64 W6        30.21R WCI   5
IRONWOOD       CLOUDY    21   3  45 SE5       30.13R WCI  15
$$

ABBREVIATIONS USED IN REMARKS
   TC - TEMPERATURE IN CELSIUS
  WCI - WIND CHILL INDEX
   HX - HEAT INDEX
  VSB - VISIBILITY




USA.gov is the U.S. government's official web portal to all federal, state and local government web resources and services.